#timestamp,LO_Frequency,Hit 
1504357215.8,286047000.3,N
1504357235.7,286047004.3,N
1504357255.5,286047002.7,N
1504357275.3,286046995.4,N
1504357295.2,286046996.1,N
1504357315.9,286046995.1,N
1504357335.7,286046995.0,N
1504357355.6,286046998.5,N
1504357375.4,286046999.0,N
1504357395.2,286046999.0,N
1504357415.1,286046995.0,N
1504357416.0,286046995.0,N
1504357435.8,286046997.6,N
1504357455.6,286046995.5,N
1504357475.4,286046993.9,N
1504357495.3,286046991.5,N
1504357515.1,286046987.7,P
1504357535.9,286046991.6,N
1504357555.7,286046993.3,N
1504357575.5,286046991.4,N
1504357595.3,286046995.8,N
1504357615.2,286046999.1,N
1504357635.0,286046999.3,N
1504357635.9,286046999.3,N
1504357655.7,286046995.4,N
1504357675.6,286046996.1,N
1504357695.4,286046997.5,N
1504357715.2,286046998.7,N
1504357735.1,286046997.3,N
1504357736.0,286046997.3,N
1504357755.8,286046996.0,N
1504357775.6,286046992.3,N
1504357795.5,286046990.2,P
1504357815.3,286046991.8,P
1504357835.1,286046997.3,N
1504357855.9,286046999.4,N
1504357875.7,286046997.0,N
1504357895.5,286047003.0,N
1504357915.4,286047007.0,N
1504357935.2,286047005.7,N
1504357955.0,286047001.3,N
1504357955.9,286047001.3,N
1504357975.8,286047001.3,N
1504357995.6,286046999.8,N
1504358015.4,286047004.0,N
1504358035.2,286047003.4,N
1504358055.1,286047000.3,N
1504358056.0,286047000.3,N
1504358075.8,286046999.4,N
1504358095.6,286046995.6,N
1504358115.5,286047001.2,N
1504358135.3,286047001.7,N
1504358155.1,286046998.1,N
1504358175.9,286046998.6,N
1504358195.7,286046997.7,N
1504358215.5,286046995.5,N
1504358235.4,286047001.5,N
1504358255.2,286047007.4,N
1504358275.0,286047002.5,N
1504358275.9,286047002.5,N
1504358295.8,286047001.6,N
1504358315.6,286047004.2,N
1504358335.4,286047002.0,N
1504358355.2,286047001.3,N
1504358375.1,286047006.5,N
1504358376.0,286047006.5,N
1504358395.8,286047003.2,N
1504358415.6,286047002.9,N
1504358435.5,286047004.4,N
1504358455.3,286047017.7,P
1504358475.1,286047028.8,P
1504358495.9,286047022.7,N
1504358515.7,286047014.6,N
1504358535.5,286047008.2,N
1504358555.4,286047003.1,N
1504358575.2,286047005.2,N
1504358595.0,286047003.2,N
1504358595.9,286047003.2,N
1504358615.8,286047005.9,N
1504358635.6,286047010.3,N
1504358655.4,286047008.4,N
1504358675.3,286047006.2,N
1504358695.1,286047009.3,N
1504358696.0,286047009.3,N
1504358715.8,286047017.1,N
1504358735.7,286047021.9,N
1504358755.5,286047018.6,N
1504358775.3,286047014.7,N
1504358795.1,286047018.7,N
1504358815.9,286047013.2,N
1504358835.7,286047008.7,N
1504358855.5,286047008.1,N
1504358875.4,286047005.3,N
1504358895.2,286047008.1,N
1504358915.0,286047014.9,N
1504358915.9,286047014.9,N
1504358935.8,286047011.3,N
1504358955.6,286047007.9,N
1504358975.4,286047007.1,N
1504358995.3,286047007.0,N
1504359015.1,286047008.4,N
1504359016.0,286047008.4,N
1504359035.8,286047008.7,N
1504359055.7,286047007.0,N
1504359075.5,286047006.9,N
1504359095.3,286047006.7,N
1504359115.1,286047010.0,N
1504359135.9,286047010.0,N
1504359155.7,286047007.5,N
1504359175.5,286047004.8,N
1504359195.4,286047011.4,N
1504359215.2,286047010.8,N
1504359235.0,286047003.8,N
1504359235.9,286047003.8,N
1504359255.8,286047006.4,N
1504359275.6,286047008.3,N
1504359295.4,286047007.6,N
1504359315.3,286047001.6,N
1504359335.1,286046998.8,N
1504359355.9,286046995.8,N
1504359375.7,286046996.6,N
1504359395.5,286047003.5,N
1504359415.4,286047002.5,N
1504359435.2,286047001.8,N
1504359455.0,286047007.5,N
1504359455.9,286047007.5,N
1504359475.8,286047006.7,N
1504359495.6,286047005.9,N
1504359515.4,286047004.4,N
1504359535.3,286047003.4,N
1504359555.1,286047003.0,N
1504359556.0,286047003.0,N
1504359575.8,286047002.2,N
1504359595.7,286046998.1,N
1504359615.5,286046997.8,N
1504359635.3,286046993.8,N
1504359655.2,286046999.4,N
1504359675.9,286046997.1,N
1504359695.7,286046995.5,N
1504359715.6,286046995.5,N
1504359735.4,286046995.2,N
1504359755.2,286046994.0,N
1504359775.0,286046994.9,N
1504359775.9,286046994.9,N
1504359795.8,286046998.0,N
1504359815.6,286046997.6,N
1504359835.4,286046997.9,N
1504359855.3,286046991.9,N
1504359875.1,286046994.2,N
1504359876.0,286046994.2,N
1504359895.8,286046999.3,N
1504359915.7,286047000.7,N
1504359935.5,286046999.0,N
1504359955.3,286046997.6,N
1504359975.2,286046995.3,N
1504359995.9,286046997.7,N
1504360015.7,286046999.6,N
1504360035.6,286046997.0,N
1504360055.4,286046995.5,N
1504360075.2,286046997.8,N
1504360095.0,286047001.2,N
1504360096.0,286047001.2,N
1504360115.8,286047000.4,N
1504360135.6,286047002.5,N
1504360155.4,286046999.1,N
1504360175.3,286046996.3,N
1504360195.1,286046990.2,P
1504360215.9,286046993.5,N
1504360235.7,286046992.9,N
1504360255.5,286046991.5,P
1504360275.4,286046999.1,N
1504360295.2,286046995.0,N
1504360315.0,286046997.9,N
1504360315.9,286046997.9,N
1504360335.8,286046998.7,N
1504360355.6,286047001.1,N
1504360375.4,286047000.4,N
1504360395.2,286047000.7,N
1504360415.1,286047001.1,N
1504360416.0,286047001.1,N
1504360435.8,286046999.2,N
1504360455.6,286047001.4,N
1504360475.5,286047002.2,N
1504360495.3,286047000.5,N
1504360515.1,286047002.1,N
1504360535.9,286047003.4,N
1504360555.7,286047003.1,N
1504360575.5,286046999.8,N
1504360595.4,286047003.5,N
1504360615.2,286047003.3,N
1504360635.0,286047000.9,N
1504360635.9,286047000.9,N
1504360655.8,286047000.2,N
1504360675.6,286046999.2,N
1504360695.4,286046997.0,N
1504360715.2,286046996.2,N
1504360735.1,286046995.7,N
1504360736.0,286046995.7,N
1504360755.8,286046998.0,N
1504360775.6,286046998.6,N
1504360795.5,286046996.6,N
